Flag for United Kingdom Weather past 2 weeks in Peterborough, England, United Kingdom

Now
59 °F

Partly sunny.


Feels Like: 59 °F
Forecast: 53 / 68 °F
Wind: 5 mph from Northeast

Location: Wittering

Current Time: Oct 2, 2014 at 11:36:39 AM

Latest Report: Oct 2, 2014 at 10:50 AM


Visibility: N/A

Pressure: 30.39 "Hg

Humidity: 77%

Dew point: 52 °F

Location of PeterboroughLocation

Historic Weather in Peterborough — Graph

°F

Peterborough temperature yesterday

Maximum temperature yesterday: 66 °F (at 11:50 AM)
Minimum temperature yesterday: 57 °F (at 7:50 AM)
Average temperature yesterday: 62 °F

Past Weeks' High & Low Weather Summary

 TemperatureHumidityPressure
High73 °F (Sep 18, 2:50 PM)100% (Sep 17, 10:50 PM)30.42 "Hg (Sep 17, 10:50 PM)
Low43 °F (Sep 22, 4:50 AM)43% (Sep 22, 2:50 PM)29.83 "Hg (Sep 18, 5:50 AM)
Average60 °F82%30.11 "Hg
* Reported Sep 17 9:50 AM — Oct 2 9:50 AM, Peterborough, Weather by CustomWeather, © 2014

Note: Actual official high and low records may vary slightly from our data, if they occured in-between our weather recording intervals... More about our weather records

Advertising

Peterborough weather history for previous 24 hours

 ConditionsComfort  
Time TempWeatherWind HumidityBarometerVisibility
9:50 AM
Oct 2
57 °FPartly sunny.3 mph82%30.42 "HgN/A
8:50 AM55 °FPartly sunny.7 mph82%30.39 "HgN/A
7:50 AM52 °FPassing clouds.6 mph88%30.42 "HgN/A
6:50 AM50 °FPassing clouds.3 mph88%30.39 "HgN/A
5:50 AM52 °FPassing clouds.6 mph88%30.39 "HgN/A
4:50 AM52 °FPassing clouds.7 mph88%30.39 "HgN/A
3:50 AM54 °FPassing clouds.7 mph82%30.39 "HgN/A
2:50 AM54 °FPassing clouds.7 mph82%30.39 "HgN/A
1:50 AM54 °FPassing clouds.7 mph88%30.39 "HgN/A
12:50 AM55 °FPassing clouds.7 mph82%30.36 "HgN/A
11:50 PM
Oct 1
59 °FPartly cloudy.9 mph82%30.36 "HgN/A
10:50 PM59 °FPassing clouds.9 mph82%30.36 "HgN/A
9:50 PM61 °FPartly cloudy.10 mph83%30.33 "HgN/A
8:50 PM63 °FPartly cloudy.5 mph77%30.33 "HgN/A
7:50 PM63 °FOvercast.3 mph77%30.30 "HgN/A
6:50 PM63 °FOvercast.5 mph73%30.30 "HgN/A
5:50 PM64 °FPartly sunny.8 mph68%30.27 "HgN/A
4:50 PM66 °FPartly sunny.9 mph60%30.24 "HgN/A
3:50 PM66 °FSunny.10 mph60%30.24 "HgN/A
2:50 PM66 °FScattered clouds.13 mph60%30.24 "HgN/A
1:50 PM64 °FPartly sunny.15 mph64%30.24 "HgN/A
12:50 PM66 °FPartly sunny.14 mph60%30.21 "HgN/A
11:50 AM66 °FScattered clouds.14 mph60%30.21 "HgN/A
Weather by CustomWeather, © 2014

See weather overviewHow to use our weather pages